Meath Environmental Platform

Observations for Trim Market St

Time AQI Temp °C Hum % Pres Pa CO μg/m³ H₂S μg/m³ NO μg/m³ NO₂ μg/m³ O₃ μg/m³ SO₂ μg/m³ PM1 μg/m³ PM2.5 μg/m³ PM10 μg/m³
Wednesday 26 August 2026
21:22 3 19.1 71 48,466 0.16 0 2.19 37.74 55.31 0 12.11 16.12 23.1
21:20 3 19.2 70 48,906 0.07 0 1.97 23.91 64.03 0 10.69 11.28 18.14
21:19 3 19.2 70 49,302 0.08 0 1.98 39.26 54.35 0 9.26 11.29 16.27
21:15 3 19.3 70 50,887 0.13 0 1.43 31.27 59.94 0 12.11 13.75 19.44
21:13 3 19.4 70 51,473 0.11 0 1.52 22.61 66.78 0 12.83 15.22 22.6
21:05 3 19.5 69 53,390 0.02 0 1.45 24.14 68.02 0 12.11 15.78 22.1
21:04 3 19.5 69 53,613 0.05 0 1.57 22.63 68.7 0 12.11 14.33 20.21
21:03 3 19.6 69 53,795 0.03 0 1.61 30.28 63.26 0 9.26 12.87 18.32
21:02 3 19.6 68 54,025 0.06 0 1.53 24.18 65.61 0 12.11 14.84 20.88
21:01 3 19.7 68 54,219 0.14 0 1.45 28.25 67.31 0 13.54 15.34 22.16
20:59 3 19.7 68 54,607 0.04 0 1.5 27.8 63.02 0 10.69 12.43 17.74
20:58 3 19.7 68 54,730 0 0 1.59 12.84 77.31 0 8.55 11.94 18.38
20:56 3 19.8 68 55,016 0.01 0 1.64 12.89 77.9 0 9.26 11.47 16.49
20:54 3 19.8 68 55,244 0 0 1.37 18.83 71.18 0 10.69 14.91 21.62
20:53 3 19.9 68 55,359 0 0 1.26 18.16 72.91 0 7.84 8.55 13.3
20:50 3 20 67 55,541 0 0 1.66 12.7 77.69 0 7.84 12.01 19.11
20:48 3 20.1 67 55,681 0 0 1.47 12.09 82.31 0 7.84 10.54 15.9
20:45 3 20.2 67 55,917 0 0 1.24 12.75 79.39 0 7.13 11.05 15.93
20:39 3 20.3 66 56,180 0 0 1.83 14.1 80.43 0 9.98 12.08 18.57
20:34 3 20.5 66 56,324 0 0 2.33 16.26 78.58 0 5.7 9.64 14.04